Regional Weather Roundup
Issued by NWS

Home | Current Version | Previous Version | Text Only | Print | Product List | Glossary On
Versions: 1 2 3 4 5 6 7 8 9 10 11 12 13 14 15 16 17 18 19 20 21 22 23 24 25 26 27 28 29 30 31 32 33 34 35 36 37 38 39 40 41 42 43 44 45 46 47 48 49 50
000
ASUS43 KMPX 280510
RWRMN
WEATHER ROUNDUP FOR MINNESOTA
NATIONAL WEATHER SERVICE TWIN CITIES/CHANHASSEN MN
1200 AM CDT TUE JUL 28 2015


NOTE: "FAIR" INDICATES FEW OR NO CLOUDS BELOW 12,000 FEET WITH NO
SIGNIFICANT WEATHER AND/OR OBSTRUCTIONS TO VISIBILITY. N/A MEANS
CURRENT SKY AND/OR WEATHER CONDITIONS ARE NOT AVAILABLE.

MNZ060>063-068>070-280600-
   Twin Cities Metro

CITY           SKY/WX    TMP DP  RH WIND       PRES   REMARKS
TWIN CITIES    PTCLDY    77  71  82 SE13      29.91S
ST PAUL        CLEAR     76  72  87 S9        29.91S
CRYSTAL        CLEAR     79  71  76 SE10      29.90R
BLAINE         CLEAR     79  73  83 S10G16    29.92R
LAKEVILLE      CLEAR     72  70  94 SE3       29.92F
EDEN PRAIRIE   CLEAR     77  71  82 SE10      29.90F
SOUTH ST PAUL  CLEAR     77  71  82 S7        29.92S
LAKE ELMO      FAIR      75  72  88 SE6       29.94R
$$
MNZ001>005-007-008-013>017-022>024-027-028-280600-
   Northwest Minnesota

CITY           SKY/WX    TMP DP  RH WIND       PRES   REMARKS
BEMIDJI        PTCLDY    75  70  84 SE10      29.86F
HALLOCK        PTCLDY    77  72  83 SE13      29.74F
ROSEAU         PTCLDY    73  68  83 SE7       29.82S
WARROAD        PTCLDY    75  70  83 SE8       29.84S
THIEF RVR FALL PTCLDY    75  70  83 SE10      29.79F
CROOKSTON      PTCLDY    73  72  94 SE9       29.76F
FOSSTON        CLEAR     73  68  83 SE7       29.81F
DETROIT LAKES  CLEAR     75  72  88 SE15      29.83F
MOORHEAD       CLEAR     77  72  83 SE12      29.76F
PARK RAPIDS    CLEAR     76  69  79 SE12      29.86F
MAHNOMEN       FAIR      76  71  85 SE10G17   29.80F
$$
MNZ006-009>011-018-025>026-280600-
   North Central Minnesota

CITY           SKY/WX    TMP DP  RH WIND       PRES   REMARKS
BAUDETTE       CLEAR     73  66  78 SE8       29.85F
FLAG ISLAND    CLEAR     81  72  74 SE12      29.83S
INTL FALLS     CLEAR     74  66  76 SE3       29.90S
WASKISH        CLEAR     72  68  88 E6        29.86F
BIG FORK       CLEAR     73  66  78 SE6       29.91S
LONGVILLE      CLEAR     73  70  88 SE6       29.90S
GRAND RAPIDS   CLEAR     72  66  83 SE6       29.92S
CRANE LAKE     CLEAR     64  63  94 SE2       29.94S
ORR            CLEAR     72  61  68 SE5       29.90F
COOK           CLEAR     72  63  73 SE6       29.94S
WALKER         FAIR      75  69  82 SE10      29.87F
$$
MNZ012-019>021-037-280600-
   Northeast Minnesota

CITY           SKY/WX    TMP DP  RH WIND       PRES   REMARKS
DULUTH         CLEAR     71  64  78 SE6       29.96S
ELY            CLEAR     70  59  68 CALM      29.96S
HIBBING        CLEAR     68  63  84 SE7       29.94S
EVELETH        CLEAR     68  61  77 CALM      29.97S
DULUTH HARBOR  CLEAR     72  68  88 N8        29.94S
TWO HARBORS    CLEAR     68  63  83 CALM      29.94F
SILVER BAY     CLEAR     66  63  88 CALM      29.95S
GRAND MARAIS     N/A     61  59  93 CALM      29.96S
G MARAIS ARPRT CLEAR     66  55  68 E3        30.02S
$$
MNZ029>031-032-039>041-046>048-054>057-064-280600-
   West Central Minnesota

CITY           SKY/WX    TMP DP  RH WIND       PRES   REMARKS
FERGUS FALLS   CLEAR     77  72  83 SE16      29.78F
WHEATON        CLEAR     73  70  88 SE14G20   29.78F
MORRIS         CLEAR     75  72  88 SE14      29.80F
ALEXANDRIA     CLEAR     74  72  93 SE12      29.86F
ELBOW LAKE     FAIR      75  72  89 SE13G18   29.81F
WADENA         CLEAR     73  70  88 SE10      29.86S
GLENWOOD       CLEAR     73  72  94 SE12      29.86F
APPLETON       CLEAR     75  70  83 SE13      29.80S
BENSON         CLEAR     75  68  78 S10G17    29.83S
ORTONVILLE     PTCLDY    75  70  83 SE12G17   29.78F
MADISON        PTCLDY    75  70  83 SE15      29.79F
WILLMAR        FAIR      75  72  88 SE10      29.87F
$$
MNZ033>034-036-042>043-049>051-058-059-280600-
   Central Minnesota

CITY           SKY/WX    TMP DP  RH WIND       PRES   REMARKS
ST CLOUD       CLEAR     75  72  90 SE7       29.88F
SAUK CENTRE    FAIR     N/A N/A N/A SE9       29.86F
PAYNESVILLE    CLEAR     73  70  89 E10G17    29.88F
AITKIN         CLEAR     75  68  78 SE8       29.90F
PINE RIVER     CLEAR     73  70  88 SE10      29.92F
BRAINERD       CLEAR     74  70  87 SE9       29.90F
STAPLES        CLEAR     73  70  88 SE5       29.87F
LONG PRAIRIE   FAIR      73  70  88 E8        29.88S
LITTLE FALLS   PTCLDY    73  68  83 E9        29.89F
LITCHFIELD     CLEAR     77  73  88 SE10      29.88F
BUFFALO        CLEAR     76  70  80 SE7       29.90F
MAPLE LAKE     CLEAR     77  73  88 SE7       29.90F
$$
MNZ037-044-045-052-053-280600-
   East Central Minnesota

CITY           SKY/WX    TMP DP  RH WIND       PRES   REMARKS
PRINCETON      CLEAR     75  72  88 E7        29.90F
MORA           CLEAR     70  64  83 E3        29.93F
CAMBRIDGE      CLEAR     77  66  69 SE5       29.90S
RUSH CITY      CLEAR     72  68  87 SE3       29.92F
MOOSE LAKE     CLEAR     72  68  88 CALM      29.92S
HINCKLEY       FAIR      72  70  94 CALM      29.93S
CLOQUET        CLEAR     72  64  78 CALM      29.95S
MCGREGOR       CLEAR     72  68  88 SE6       29.93S
$$
MNZ071>073-080-081-089-090-097-098-280600-
   Southwest Minnesota

CITY           SKY/WX    TMP DP  RH WIND       PRES   REMARKS
MONTEVIDEO     PTCLDY    75  70  83 S9G17     29.84F
GRANITE FALLS  PTCLDY    74  68  80 SE12      29.85S
CANBY          PTCLDY    74  70  87 SE12      29.80F
MARSHALL       PTCLDY    73  66  78 SE15      29.84S
REDWOOD FALLS  CLEAR     73  68  84 SE12      29.85F
OLIVIA         CLEAR     72  68  88 SE10      29.86S
PIPESTONE      PTCLDY    73  68  83 S12       29.83F
WINDOM         CLEAR     72  66  83 SE10G18   29.89F
WORTHINGTON    PTCLDY    72  64  78 S14G20    29.87F
JACKSON        CLEAR     72  68  88 SE13      29.91S
TRACY          PTCLDY    73  70  88 S12G17    29.85F
SLAYTON        PTCLDY    73  68  87 SE13      29.87F
$$
MNZ065>067-074>077-082>085-091>093-280600-
   South Central Minnesota

CITY           SKY/WX    TMP DP  RH WIND       PRES   REMARKS
MANKATO        CLEAR     73  70  88 S13       29.91S
NEW ULM        CLEAR     72  66  83 SE8       29.89F
ST JAMES       CLEAR     72  68  88 SE9       29.90F
FAIRMONT       CLEAR     72  61  68 SE14      29.90F
GLENCOE        CLEAR     75  73  94 SE7       29.90S
FARIBAULT      CLEAR     73  72  94 SE7       29.93F
OWATONNA       CLEAR     75  72  88 SE8       29.93S
WASECA         CLEAR     72  70  94 SE6       29.94S
ALBERT LEA     PTCLDY    73  73 100 SE8       29.94S
$$
MNZ078>079-086>088-094>096-280600-
   Southeast Minnesota

CITY           SKY/WX    TMP DP  RH WIND       PRES   REMARKS
ROCHESTER      CLEAR     71  69  93 SE8       29.97S
RED WING       CLEAR     77  70  78 SE8       29.93S
STANTON        CLEAR     76  70  82 SE8       29.92S
DODGE CENTER   CLEAR     72  70  94 SE8       29.96S FOG
WINONA         CLEAR     73  70  88 SE3       29.96S
AUSTIN         CLEAR     73  72  94 SE7       29.95F
PRESTON        CLEAR     72  68  88 SE5       29.99R
$$
ABBREVIATIONS USED IN REMARKS
   TC - TEMPERATURES IN CELSIUS
  WCI - WIND CHILL INDEX
   HX - HEAT INDEX
  VSB - VISIBILITY
$$


USA.gov is the U.S. government's official web portal to all federal, state and local government web resources and services.